Location: Croagnes
(43.9363°N, 5.3265°E)
Time: 06:09:44
(UTC+00:00)

Cosmos 2058 Rocket - Pass Details

Date: 06 June 2020
Orbit: 611 x 638 km, 82.5° (Epoch: 04 July)

Event Time Altitude Azimuth Distance (km) Brightness Sun altitude
Rises 23:02:48 0° 352° (N) 2,924 8.0 -22.8°
Reaches altitude 10° 23:05:03 10° 353° (N) 2,016 6.8 -22.9°
Maximum altitude 23:09:32 84° 80° (E) 642 3.0 -23.0°
Enters shadow 23:09:53 75° 148° (SSE) 660 2.9 -23.0°
